Time,TemperatureF,DewpointF,PressureIn,WindDirection,WindDirectionDegrees,WindSpeedMPH,WindSpeedGustMPH,Humidity,HourlyPrecipIn,Conditions,Clouds,dailyrainin,SolarRadiationWatts/m^2,SoftwareType,DateUTC
2013-04-03 00:01:00,27.5,13.5,30.31,NW,305,0.0,-999.0,55,0.00,,,0.00,0,WeatherHawk,2013-04-03 05:01:00,
2013-04-03 00:06:00,28.5,13.2,30.31,NNW,331,3.0,0.0,52,0.00,,,0.00,0,WeatherHawk,2013-04-03 05:06:00,
2013-04-03 00:12:00,27.5,11.8,30.30,NW,320,2.0,0.0,51,0.00,,,0.00,0,WeatherHawk,2013-04-03 05:12:00,
2013-04-03 00:18:00,26.5,10.8,30.31,NW,320,0.0,0.0,51,0.00,,,0.00,1,WeatherHawk,2013-04-03 05:18:00,
2013-04-03 00:24:00,26.9,11.7,30.31,NW,307,0.0,0.0,52,0.00,,,0.00,1,WeatherHawk,2013-04-03 05:24:00,
2013-04-03 00:30:00,27.0,12.1,30.31,NNW,331,0.0,0.0,53,0.00,,,0.00,0,WeatherHawk,2013-04-03 05:30:00,
2013-04-03 00:35:00,26.8,12.4,30.31,NW,310,0.0,0.0,54,0.00,,,0.00,0,WeatherHawk,2013-04-03 05:35:00,
2013-04-03 00:40:00,25.8,12.3,30.32,NW,310,0.0,0.0,56,0.00,,,0.00,1,WeatherHawk,2013-04-03 05:40:00,
2013-04-03 00:45:00,25.7,12.2,30.32,West,281,0.0,0.0,56,0.00,,,0.00,0,WeatherHawk,2013-04-03 05:45:00,
2013-04-03 00:50:00,25.2,12.6,30.32,WNW,282,0.0,0.0,58,0.00,,,0.00,0,WeatherHawk,2013-04-03 05:50:00,
2013-04-03 00:55:00,25.6,13.3,30.32,West,281,0.0,0.0,59,0.00,,,0.00,0,WeatherHawk,2013-04-03 05:55:00,
2013-04-03 01:00:00,25.2,13.3,30.32,WNW,282,0.0,0.0,60,0.00,,,0.00,0,WeatherHawk,2013-04-03 06:00:00,
2013-04-03 01:05:00,25.5,14.0,30.32,WNW,282,0.0,0.0,61,0.00,,,0.00,0,WeatherHawk,2013-04-03 06:05:00,
2013-04-03 01:10:00,26.4,15.2,30.31,West,281,0.0,0.0,62,0.00,,,0.00,0,WeatherHawk,2013-04-03 06:10:00,
2013-04-03 01:15:00,22.9,11.5,30.32,West,281,0.0,0.0,61,0.00,,,0.00,0,WeatherHawk,2013-04-03 06:15:00,
2013-04-03 01:20:00,25.0,13.8,30.32,WNW,282,0.0,0.0,62,0.00,,,0.00,0,WeatherHawk,2013-04-03 06:20:00,
2013-04-03 01:25:00,25.8,14.9,30.32,WNW,282,0.0,0.0,63,0.00,,,0.00,0,WeatherHawk,2013-04-03 06:25:00,
2013-04-03 01:30:00,25.9,13.9,30.33,NW,323,0.0,0.0,60,0.00,,,0.00,0,WeatherHawk,2013-04-03 06:30:00,
2013-04-03 01:35:00,26.3,14.7,30.32,NW,323,2.0,0.0,61,0.00,,,0.00,0,WeatherHawk,2013-04-03 06:35:00,
2013-04-03 01:40:00,26.6,14.6,30.32,NNW,332,2.0,0.0,60,0.00,,,0.00,0,WeatherHawk,2013-04-03 06:40:00,
2013-04-03 01:45:00,25.5,13.2,30.31,North,351,0.0,0.0,59,0.00,,,0.00,0,WeatherHawk,2013-04-03 06:45:00,
2013-04-03 01:50:00,25.8,13.8,30.32,NNW,329,2.0,0.0,60,0.00,,,0.00,0,WeatherHawk,2013-04-03 06:50:00,
2013-04-03 01:55:00,25.3,13.4,30.32,NNW,329,0.0,0.0,60,0.00,,,0.00,0,WeatherHawk,2013-04-03 06:55:00,
2013-04-03 02:00:00,25.3,13.4,30.31,NW,326,0.0,0.0,60,0.00,,,0.00,0,WeatherHawk,2013-04-03 07:00:00,
2013-04-03 02:05:00,22.8,11.8,30.32,SW,217,0.0,0.0,62,0.00,,,0.00,0,WeatherHawk,2013-04-03 07:05:00,
2013-04-03 02:10:00,25.2,14.4,30.33,SW,217,0.0,0.0,63,0.00,,,0.00,1,WeatherHawk,2013-04-03 07:10:00,
2013-04-03 02:16:00,25.5,15.0,30.32,NNW,328,1.0,-999.0,64,0.00,,,0.00,1,WeatherHawk,2013-04-03 07:16:00,
2013-04-03 02:22:00,25.8,14.3,30.33,West,264,0.0,0.0,61,0.00,,,0.00,0,WeatherHawk,2013-04-03 07:22:00,
2013-04-03 02:27:00,25.7,13.4,30.32,NNW,341,1.0,0.0,59,0.00,,,0.00,0,WeatherHawk,2013-04-03 07:27:00,
2013-04-03 02:32:00,26.3,13.5,30.32,North,349,2.0,0.0,58,0.00,,,0.00,0,WeatherHawk,2013-04-03 07:32:00,
2013-04-03 02:37:00,26.5,12.9,30.32,North,2,2.0,0.0,56,0.00,,,0.00,0,WeatherHawk,2013-04-03 07:37:00,
2013-04-03 02:42:00,27.4,13.4,30.31,NW,320,6.0,0.0,55,0.00,,,0.00,0,WeatherHawk,2013-04-03 07:42:00,
2013-04-03 02:47:00,27.4,13.4,30.31,NW,324,6.0,0.0,55,0.00,,,0.00,0,WeatherHawk,2013-04-03 07:47:00,
2013-04-03 02:52:00,27.6,12.7,30.31,NNW,344,6.0,0.0,53,0.00,,,0.00,0,WeatherHawk,2013-04-03 07:52:00,
2013-04-03 02:58:00,26.8,11.5,30.32,NNW,345,4.0,0.0,52,0.00,,,0.00,0,WeatherHawk,2013-04-03 07:58:00,
2013-04-03 03:03:00,27.0,11.3,30.32,NW,315,6.0,0.0,51,0.00,,,0.00,0,WeatherHawk,2013-04-03 08:03:00,
2013-04-03 03:08:00,27.0,11.3,30.33,WNW,303,4.0,0.0,51,0.00,,,0.00,1,WeatherHawk,2013-04-03 08:08:00,
2013-04-03 03:13:00,26.4,10.7,30.32,NW,309,4.0,0.0,51,0.00,,,0.00,0,WeatherHawk,2013-04-03 08:13:00,
2013-04-03 03:19:00,27.0,10.9,30.32,NW,308,4.0,0.0,50,0.00,,,0.00,0,WeatherHawk,2013-04-03 08:19:00,
2013-04-03 03:24:00,26.7,10.6,30.32,WNW,285,4.0,0.0,50,0.00,,,0.00,0,WeatherHawk,2013-04-03 08:24:00,
2013-04-03 03:29:00,26.8,11.1,30.33,NNW,331,4.0,0.0,51,0.00,,,0.00,1,WeatherHawk,2013-04-03 08:29:00,
2013-04-03 03:34:00,26.8,11.1,30.33,NNW,336,4.0,0.0,51,0.00,,,0.00,0,WeatherHawk,2013-04-03 08:34:00,
2013-04-03 03:40:00,26.4,10.8,30.34,NE,38,4.0,0.0,51,0.00,,,0.00,0,WeatherHawk,2013-04-03 08:40:00,
2013-04-03 03:45:00,27.1,11.4,30.33,WNW,284,8.0,0.0,51,0.00,,,0.00,0,WeatherHawk,2013-04-03 08:45:00,
2013-04-03 03:50:00,26.3,10.7,30.33,North,351,2.0,0.0,51,0.00,,,0.00,0,WeatherHawk,2013-04-03 08:50:00,
2013-04-03 03:55:00,26.1,10.9,30.33,NNW,344,4.0,0.0,52,0.00,,,0.00,0,WeatherHawk,2013-04-03 08:55:00,
2013-04-03 04:00:00,26.9,11.6,30.34,NNW,332,6.0,0.0,52,0.00,,,0.00,0,WeatherHawk,2013-04-03 09:00:00,
2013-04-03 04:05:00,26.0,11.7,30.34,North,350,3.0,0.0,54,0.00,,,0.00,0,WeatherHawk,2013-04-03 09:05:00,
2013-04-03 04:10:00,26.4,12.5,30.34,NW,316,2.0,0.0,55,0.00,,,0.00,0,WeatherHawk,2013-04-03 09:10:00,
2013-04-03 04:15:00,26.1,12.5,30.34,North,350,3.0,0.0,56,0.00,,,0.00,0,WeatherHawk,2013-04-03 09:15:00,
2013-04-03 04:20:00,25.9,12.0,30.34,North,2,4.0,0.0,55,0.00,,,0.00,0,WeatherHawk,2013-04-03 09:20:00,
2013-04-03 04:25:00,25.6,12.1,30.34,NNW,343,2.0,0.0,56,0.00,,,0.00,0,WeatherHawk,2013-04-03 09:25:00,
2013-04-03 04:30:00,24.9,11.4,30.34,NNW,335,2.0,0.0,56,0.00,,,0.00,1,WeatherHawk,2013-04-03 09:30:00,
2013-04-03 04:35:00,26.2,12.6,30.34,North,349,5.0,0.0,56,0.00,,,0.00,0,WeatherHawk,2013-04-03 09:35:00,
2013-04-03 04:40:00,25.9,12.4,30.34,NNW,337,4.0,0.0,56,0.00,,,0.00,0,WeatherHawk,2013-04-03 09:40:00,
2013-04-03 04:45:00,25.5,12.0,30.35,NNW,346,2.0,0.0,56,0.00,,,0.00,1,WeatherHawk,2013-04-03 09:45:00,
2013-04-03 04:50:00,25.6,12.5,30.34,NNW,343,2.0,0.0,57,0.00,,,0.00,1,WeatherHawk,2013-04-03 09:50:00,
2013-04-03 04:55:00,25.4,12.3,30.35,NNW,340,2.0,0.0,57,0.00,,,0.00,0,WeatherHawk,2013-04-03 09:55:00,
2013-04-03 05:00:00,25.2,12.1,30.35,NNW,336,0.0,0.0,57,0.00,,,0.00,0,WeatherHawk,2013-04-03 10:00:00,
2013-04-03 05:05:00,25.3,12.6,30.35,NNW,331,2.0,0.0,58,0.00,,,0.00,0,WeatherHawk,2013-04-03 10:05:00,
2013-04-03 05:10:00,24.4,12.2,30.36,NNW,336,0.0,0.0,59,0.00,,,0.00,0,WeatherHawk,2013-04-03 10:10:00,
2013-04-03 05:15:00,24.1,13.0,30.35,NNW,336,0.0,0.0,62,0.00,,,0.00,0,WeatherHawk,2013-04-03 10:15:00,
2013-04-03 05:20:00,24.2,13.5,30.35,NNW,336,0.0,0.0,63,0.00,,,0.00,0,WeatherHawk,2013-04-03 10:20:00,
2013-04-03 05:25:00,23.9,13.5,30.35,NNW,336,0.0,0.0,64,0.00,,,0.00,0,WeatherHawk,2013-04-03 10:25:00,
2013-04-03 05:30:00,23.7,14.0,30.36,NNW,336,0.0,-999.0,66,0.00,,,0.00,0,WeatherHawk,2013-04-03 10:30:00,
2013-04-03 05:35:00,24.9,16.5,30.35,NNE,12,2.0,0.0,70,0.00,,,0.00,0,WeatherHawk,2013-04-03 10:35:00,
2013-04-03 05:40:00,23.6,14.6,30.35,North,351,0.0,0.0,68,0.00,,,0.00,0,WeatherHawk,2013-04-03 10:40:00,
2013-04-03 05:45:00,24.4,15.7,30.36,NE,36,1.0,0.0,69,0.00,,,0.00,0,WeatherHawk,2013-04-03 10:45:00,
2013-04-03 05:50:00,23.8,15.5,30.36,NNE,14,0.0,0.0,70,0.00,,,0.00,0,WeatherHawk,2013-04-03 10:50:00,
2013-04-03 05:55:00,23.5,15.9,30.36,NNE,14,0.0,0.0,72,0.00,,,0.00,1,WeatherHawk,2013-04-03 10:55:00,
2013-04-03 06:00:00,23.7,16.0,30.36,NNE,14,0.0,0.0,72,0.00,,,0.00,1,WeatherHawk,2013-04-03 11:00:00,
2013-04-03 06:05:00,21.2,14.2,30.36,NNE,14,0.0,0.0,74,0.00,,,0.00,0,WeatherHawk,2013-04-03 11:05:00,
2013-04-03 06:10:00,23.4,17.2,30.37,NNE,14,0.0,0.0,77,0.00,,,0.00,0,WeatherHawk,2013-04-03 11:10:00,
2013-04-03 06:15:00,22.7,16.9,30.37,NNE,14,0.0,0.0,78,0.00,,,0.00,1,WeatherHawk,2013-04-03 11:15:00,
2013-04-03 06:20:00,23.3,17.8,30.38,NNE,14,0.0,0.0,79,0.00,,,0.00,0,WeatherHawk,2013-04-03 11:20:00,
2013-04-03 06:25:00,23.1,17.3,30.38,NNE,14,0.0,0.0,78,0.00,,,0.00,0,WeatherHawk,2013-04-03 11:25:00,
2013-04-03 06:30:00,22.6,16.8,30.38,NNE,14,0.0,0.0,78,0.00,,,0.00,1,WeatherHawk,2013-04-03 11:30:00,
2013-04-03 06:35:00,22.6,17.3,30.38,NNE,14,0.0,0.0,80,0.00,,,0.00,6,WeatherHawk,2013-04-03 11:35:00,
2013-04-03 06:40:00,22.9,17.9,30.38,NNE,14,0.0,0.0,81,0.00,,,0.00,6,WeatherHawk,2013-04-03 11:40:00,
2013-04-03 06:45:00,22.5,16.9,30.39,NNE,14,0.0,0.0,79,0.00,,,0.00,11,WeatherHawk,2013-04-03 11:45:00,
2013-04-03 06:50:00,22.4,17.5,30.39,NNE,14,0.0,0.0,81,0.00,,,0.00,12,WeatherHawk,2013-04-03 11:50:00,
2013-04-03 06:55:00,20.8,15.9,30.40,NNE,14,0.0,0.0,81,0.00,,,0.00,16,WeatherHawk,2013-04-03 11:55:00,
2013-04-03 07:00:00,21.4,17.0,30.40,NNE,14,0.0,0.0,83,0.00,,,0.00,22,WeatherHawk,2013-04-03 12:00:00,
2013-04-03 07:05:00,23.8,19.9,30.40,NNE,14,0.0,0.0,85,0.00,,,0.00,34,WeatherHawk,2013-04-03 12:05:00,
2013-04-03 07:10:00,25.1,20.1,30.40,NNE,14,0.0,0.0,81,0.00,,,0.00,44,WeatherHawk,2013-04-03 12:10:00,
2013-04-03 07:15:00,25.4,18.3,30.40,NNE,14,0.0,0.0,74,0.00,,,0.00,52,WeatherHawk,2013-04-03 12:15:00,
2013-04-03 07:20:00,27.5,19.3,30.41,NNE,14,0.0,0.0,71,0.00,,,0.00,63,WeatherHawk,2013-04-03 12:20:00,
2013-04-03 07:25:00,27.1,17.3,30.41,NNE,14,0.0,0.0,66,0.00,,,0.00,74,WeatherHawk,2013-04-03 12:25:00,
2013-04-03 07:30:00,27.8,16.9,30.41,NNE,14,0.0,0.0,63,0.00,,,0.00,88,WeatherHawk,2013-04-03 12:30:00,
2013-04-03 07:35:00,27.9,15.1,30.41,WSW,238,1.0,0.0,58,0.00,,,0.00,101,WeatherHawk,2013-04-03 12:35:00,
2013-04-03 07:40:00,30.3,16.1,30.41,SW,230,0.0,0.0,55,0.00,,,0.00,116,WeatherHawk,2013-04-03 12:40:00,
2013-04-03 07:45:00,29.0,13.2,30.42,WSW,238,2.0,0.0,51,0.00,,,0.00,130,WeatherHawk,2013-04-03 12:45:00,
2013-04-03 07:50:00,29.9,13.1,30.42,SW,236,2.0,0.0,49,0.00,,,0.00,145,WeatherHawk,2013-04-03 12:50:00,
2013-04-03 07:55:00,32.0,14.1,30.43,SW,234,0.0,0.0,47,0.00,,,0.00,165,WeatherHawk,2013-04-03 12:55:00,
2013-04-03 08:00:00,31.1,12.8,30.43,SW,221,0.0,0.0,46,0.00,,,0.00,176,WeatherHawk,2013-04-03 13:00:00,
2013-04-03 08:05:00,34.9,15.2,30.44,SW,234,0.0,0.0,44,0.00,,,0.00,193,WeatherHawk,2013-04-03 13:05:00,
2013-04-03 08:10:00,32.1,11.1,30.43,SW,233,0.0,0.0,41,0.00,,,0.00,213,WeatherHawk,2013-04-03 13:10:00,
2013-04-03 08:15:00,33.8,11.5,30.43,West,270,2.0,0.0,39,0.00,,,0.00,226,WeatherHawk,2013-04-03 13:15:00,
2013-04-03 08:20:00,35.4,12.9,30.43,WSW,239,0.0,0.0,39,0.00,,,0.00,242,WeatherHawk,2013-04-03 13:20:00,
2013-04-03 08:25:00,31.0,7.2,30.44,WNW,289,3.0,0.0,36,0.00,,,0.00,260,WeatherHawk,2013-04-03 13:25:00,
2013-04-03 08:30:00,35.4,12.3,30.44,West,261,0.0,0.0,38,0.00,,,0.00,277,WeatherHawk,2013-04-03 13:30:00,
2013-04-03 08:35:00,32.2,7.6,30.43,NW,309,2.0,0.0,35,0.00,,,0.00,294,WeatherHawk,2013-04-03 13:35:00,
2013-04-03 08:40:00,32.6,8.6,30.43,WNW,296,1.0,0.0,36,0.00,,,0.00,308,WeatherHawk,2013-04-03 13:40:00,
2013-04-03 08:45:00,34.1,8.0,30.43,West,269,0.0,0.0,33,0.00,,,0.00,327,WeatherHawk,2013-04-03 13:45:00,
2013-04-03 08:50:00,36.4,8.7,30.43,WNW,289,1.0,0.0,31,0.00,,,0.00,343,WeatherHawk,2013-04-03 13:50:00,
2013-04-03 08:55:00,36.8,9.1,30.44,West,260,0.0,0.0,31,0.00,,,0.00,360,WeatherHawk,2013-04-03 13:55:00,
2013-04-03 09:00:00,33.0,1.0,30.44,West,280,2.0,0.0,25,0.00,,,0.00,374,WeatherHawk,2013-04-03 14:00:00,
2013-04-03 09:06:00,38.6,8.3,30.44,WSW,256,0.0,0.0,28,0.00,,,0.00,394,WeatherHawk,2013-04-03 14:06:00,
2013-04-03 09:10:00,35.4,-0.6,30.43,WSW,251,0.0,0.0,21,0.00,,,0.00,406,WeatherHawk,2013-04-03 14:10:00,
2013-04-03 09:16:00,35.9,-1.2,30.43,WNW,295,0.0,0.0,20,0.00,,,0.00,424,WeatherHawk,2013-04-03 14:16:00,
2013-04-03 09:20:00,35.5,-4.9,30.43,West,276,0.0,0.0,17,0.00,,,0.00,438,WeatherHawk,2013-04-03 14:20:00,
2013-04-03 09:26:00,33.5,-7.8,30.42,NNE,25,3.0,0.0,16,0.00,,,0.00,455,WeatherHawk,2013-04-03 14:26:00,
2013-04-03 09:31:00,34.7,-1.2,30.43,NNE,27,2.0,0.0,21,0.00,,,0.00,471,WeatherHawk,2013-04-03 14:31:00,
2013-04-03 09:35:00,35.9,2.7,30.43,North,1,3.0,0.0,24,0.00,,,0.00,481,WeatherHawk,2013-04-03 14:35:00,
2013-04-03 09:40:00,34.5,0.5,30.43,NNE,31,4.0,0.0,23,0.00,,,0.00,496,WeatherHawk,2013-04-03 14:40:00,
2013-04-03 09:46:00,34.8,1.7,30.43,NNE,21,4.0,0.0,24,0.00,,,0.00,511,WeatherHawk,2013-04-03 14:46:00,
2013-04-03 09:51:00,35.6,4.2,30.43,North,6,4.0,0.0,26,0.00,,,0.00,528,WeatherHawk,2013-04-03 14:51:00,
2013-04-03 09:56:00,35.9,1.8,30.43,NNW,344,3.0,0.0,23,0.00,,,0.00,540,WeatherHawk,2013-04-03 14:56:00,
2013-04-03 10:00:00,36.5,1.4,30.43,NNE,22,1.0,0.0,22,0.00,,,0.00,553,WeatherHawk,2013-04-03 15:00:00,
2013-04-03 10:06:00,34.8,-0.1,30.44,North,8,5.0,0.0,22,0.00,,,0.00,568,WeatherHawk,2013-04-03 15:06:00,
2013-04-03 10:11:00,35.9,3.5,30.44,NE,37,4.0,0.0,25,0.00,,,0.00,582,WeatherHawk,2013-04-03 15:11:00,
2013-04-03 10:16:00,35.8,-1.3,30.44,North,1,6.0,0.0,20,0.00,,,0.00,597,WeatherHawk,2013-04-03 15:16:00,
2013-04-03 10:21:00,36.6,2.3,30.45,NNE,17,2.0,0.0,23,0.00,,,0.00,608,WeatherHawk,2013-04-03 15:21:00,
2013-04-03 10:26:00,35.5,-1.5,30.43,ENE,67,5.0,-999.0,20,0.00,,,0.00,620,WeatherHawk,2013-04-03 15:26:00,
2013-04-03 10:31:00,34.9,-3.1,30.43,NNE,27,5.0,0.0,19,0.00,,,0.00,630,WeatherHawk,2013-04-03 15:31:00,
2013-04-03 10:36:00,34.7,-4.4,30.43,NNE,20,5.0,0.0,18,0.00,,,0.00,648,WeatherHawk,2013-04-03 15:36:00,
2013-04-03 10:42:00,36.6,0.4,30.44,ENE,60,2.0,0.0,21,0.00,,,0.00,655,WeatherHawk,2013-04-03 15:42:00,
2013-04-03 10:47:00,35.3,-7.7,30.42,ENE,57,5.0,0.0,15,0.00,,,0.00,667,WeatherHawk,2013-04-03 15:47:00,
2013-04-03 10:53:00,36.9,-0.4,30.42,North,10,5.0,0.0,20,0.00,,,0.00,668,WeatherHawk,2013-04-03 15:53:00,
2013-04-03 10:58:00,37.1,-2.4,30.42,NNE,22,6.0,0.0,18,0.00,,,0.00,684,WeatherHawk,2013-04-03 15:58:00,
2013-04-03 11:04:00,37.0,-0.3,30.42,North,0,4.0,0.0,20,0.00,,,0.00,701,WeatherHawk,2013-04-03 16:04:00,
2013-04-03 11:10:00,37.5,-2.1,30.42,NE,40,3.0,0.0,18,0.00,,,0.00,710,WeatherHawk,2013-04-03 16:10:00,
2013-04-03 11:15:00,37.2,-0.1,30.42,NNW,337,4.0,0.0,20,0.00,,,0.00,721,WeatherHawk,2013-04-03 16:15:00,
2013-04-03 11:21:00,36.7,-5.2,30.42,NE,38,3.0,0.0,16,0.00,,,0.00,731,WeatherHawk,2013-04-03 16:21:00,
2013-04-03 11:26:00,39.5,1.8,30.42,North,10,3.0,0.0,20,0.00,,,0.00,733,WeatherHawk,2013-04-03 16:26:00,
2013-04-03 11:31:00,37.7,-3.2,30.41,NE,47,6.0,0.0,17,0.00,,,0.00,743,WeatherHawk,2013-04-03 16:31:00,
2013-04-03 11:37:00,37.9,-7.0,30.41,NE,38,7.0,0.0,14,0.00,,,0.00,750,WeatherHawk,2013-04-03 16:37:00,
2013-04-03 11:43:00,37.6,-14.0,30.41,East,85,3.0,0.0,10,0.00,,,0.00,760,WeatherHawk,2013-04-03 16:43:00,
2013-04-03 11:49:00,37.2,-18.6,30.40,NE,40,3.0,0.0,8,0.00,,,0.00,762,WeatherHawk,2013-04-03 16:49:00,
2013-04-03 11:54:00,36.6,-9.5,30.40,NNE,17,8.0,0.0,13,0.00,,,0.00,772,WeatherHawk,2013-04-03 16:54:00,
2013-04-03 12:00:00,36.7,-12.8,30.40,ENE,58,6.0,0.0,11,0.00,,,0.00,777,WeatherHawk,2013-04-03 17:00:00,
2013-04-03 12:06:00,35.8,-15.4,30.40,East,81,3.0,0.0,10,0.00,,,0.00,781,WeatherHawk,2013-04-03 17:06:00,
2013-04-03 12:11:00,36.4,-14.9,30.40,NNE,31,2.0,0.0,10,0.00,,,0.00,784,WeatherHawk,2013-04-03 17:11:00,
2013-04-03 12:16:00,37.0,-14.5,30.40,North,2,6.0,0.0,10,0.00,,,0.00,790,WeatherHawk,2013-04-03 17:16:00,
2013-04-03 12:21:00,42.6,-8.2,30.39,South,177,3.0,0.0,11,0.00,,,0.00,792,WeatherHawk,2013-04-03 17:21:00,
2013-04-03 12:26:00,37.3,-9.0,30.40,ESE,103,4.0,0.0,13,0.00,,,0.00,795,WeatherHawk,2013-04-03 17:26:00,
2013-04-03 12:31:00,39.9,-8.5,30.39,North,0,0.0,-999.0,12,0.00,,,0.00,795,WeatherHawk,2013-04-03 17:31:00,
2013-04-03 12:36:00,39.8,-14.3,30.39,NE,36,2.0,-999.0,9,0.00,,,0.00,798,WeatherHawk,2013-04-03 17:36:00,
2013-04-03 12:43:00,39.4,-12.6,30.40,NE,39,3.0,0.0,10,0.00,,,0.00,801,WeatherHawk,2013-04-03 17:43:00,
2013-04-03 12:48:00,38.9,-9.3,30.40,NW,307,2.0,0.0,12,0.00,,,0.00,801,WeatherHawk,2013-04-03 17:48:00,
2013-04-03 12:53:00,40.8,-11.5,30.40,SSE,149,4.0,0.0,10,0.00,,,0.00,807,WeatherHawk,2013-04-03 17:53:00,
2013-04-03 12:58:00,40.6,-8.0,30.39,West,263,0.0,0.0,12,0.00,,,0.00,805,WeatherHawk,2013-04-03 17:58:00,
2013-04-03 13:04:00,40.7,-11.6,30.40,East,86,0.0,0.0,10,0.00,,,0.00,803,WeatherHawk,2013-04-03 18:04:00,
2013-04-03 13:10:00,39.5,-14.6,30.40,ESE,109,3.0,0.0,9,0.00,,,0.00,808,WeatherHawk,2013-04-03 18:10:00,
2013-04-03 13:15:00,40.4,-11.8,30.39,North,10,4.0,0.0,10,0.00,,,0.00,804,WeatherHawk,2013-04-03 18:15:00,
2013-04-03 13:21:00,40.2,-14.1,30.39,NNW,333,3.0,0.0,9,0.00,,,0.00,803,WeatherHawk,2013-04-03 18:21:00,
2013-04-03 13:26:00,38.8,-17.4,30.39,East,90,5.0,0.0,8,0.00,,,0.00,801,WeatherHawk,2013-04-03 18:26:00,
2013-04-03 13:31:00,42.9,-6.2,30.39,SSE,152,1.0,0.0,12,0.00,,,0.00,799,WeatherHawk,2013-04-03 18:31:00,
2013-04-03 13:36:00,42.3,-5.0,30.38,ENE,66,3.0,0.0,13,0.00,,,0.00,801,WeatherHawk,2013-04-03 18:36:00,
2013-04-03 13:41:00,41.2,-9.3,30.39,South,180,5.0,0.0,11,0.00,,,0.00,796,WeatherHawk,2013-04-03 18:41:00,
2013-04-03 13:46:00,40.5,-8.1,30.39,South,178,7.0,0.0,12,0.00,,,0.00,784,WeatherHawk,2013-04-03 18:46:00,
2013-04-03 13:51:00,38.9,-11.1,30.38,South,178,5.0,0.0,11,0.00,,,0.00,761,WeatherHawk,2013-04-03 18:51:00,
2013-04-03 13:56:00,41.9,-12.7,30.39,NE,56,2.0,0.0,9,0.00,,,0.00,779,WeatherHawk,2013-04-03 18:56:00,
2013-04-03 14:01:00,41.7,-2.5,30.39,SE,143,3.0,0.0,15,0.00,,,0.00,773,WeatherHawk,2013-04-03 19:01:00,
2013-04-03 14:06:00,40.9,-13.5,30.40,SSE,159,0.0,0.0,9,0.00,,,0.00,775,WeatherHawk,2013-04-03 19:06:00,
2013-04-03 14:12:00,39.4,-8.9,30.39,SSE,160,7.0,0.0,12,0.00,,,0.00,768,WeatherHawk,2013-04-03 19:12:00,
2013-04-03 14:18:00,41.5,-9.0,30.39,WSW,243,2.0,0.0,11,0.00,,,0.00,735,WeatherHawk,2013-04-03 19:18:00,
2013-04-03 14:24:00,40.9,-15.9,30.39,SSE,155,2.0,0.0,8,0.00,,,0.00,705,WeatherHawk,2013-04-03 19:24:00,
2013-04-03 14:30:00,40.0,-16.5,30.37,ENE,75,6.0,0.0,8,0.00,,,0.00,692,WeatherHawk,2013-04-03 19:30:00,
2013-04-03 14:35:00,41.0,-7.6,30.38,SE,144,8.0,0.0,12,0.00,,,0.00,673,WeatherHawk,2013-04-03 19:35:00,
2013-04-03 14:40:00,41.2,-5.9,30.37,SSW,196,4.0,0.0,13,0.00,,,0.00,657,WeatherHawk,2013-04-03 19:40:00,
2013-04-03 14:45:00,42.1,-10.5,30.37,SSE,163,2.0,0.0,10,0.00,,,0.00,666,WeatherHawk,2013-04-03 19:45:00,
2013-04-03 14:51:00,40.3,-16.3,30.36,ESE,118,5.0,0.0,8,0.00,,,0.00,646,WeatherHawk,2013-04-03 19:51:00,
2013-04-03 14:57:00,41.2,-7.5,30.37,SSE,151,4.0,0.0,12,0.00,,,0.00,631,WeatherHawk,2013-04-03 19:57:00,
2013-04-03 15:02:00,44.5,-1.7,30.36,West,267,4.0,0.0,14,0.00,,,0.00,634,WeatherHawk,2013-04-03 20:02:00,
2013-04-03 15:07:00,42.9,-7.9,30.36,WSW,244,2.0,0.0,11,0.00,,,0.00,612,WeatherHawk,2013-04-03 20:07:00,
2013-04-03 15:13:00,43.9,-5.4,30.36,SSW,203,3.0,0.0,12,0.00,,,0.00,599,WeatherHawk,2013-04-03 20:13:00,
2013-04-03 15:19:00,44.4,-10.9,30.35,West,262,1.0,0.0,9,0.00,,,0.00,592,WeatherHawk,2013-04-03 20:19:00,
2013-04-03 15:25:00,41.6,-7.2,30.35,ESE,118,5.0,0.0,12,0.00,,,0.00,570,WeatherHawk,2013-04-03 20:25:00,
2013-04-03 15:30:00,41.1,-7.6,30.35,ENE,69,4.0,0.0,12,0.00,,,0.00,577,WeatherHawk,2013-04-03 20:30:00,
2013-04-03 15:35:00,43.9,-11.2,30.34,South,188,2.0,-999.0,9,0.00,,,0.00,573,WeatherHawk,2013-04-03 20:35:00,
2013-04-03 15:41:00,43.9,-9.1,30.34,South,181,3.0,0.0,10,0.00,,,0.00,574,WeatherHawk,2013-04-03 20:41:00,
2013-04-03 15:47:00,44.0,-9.0,30.34,SSW,201,2.0,0.0,10,0.00,,,0.00,557,WeatherHawk,2013-04-03 20:47:00,
2013-04-03 15:54:00,44.0,-5.3,30.35,SSW,194,3.0,0.0,12,0.00,,,0.00,553,WeatherHawk,2013-04-03 20:54:00,
2013-04-03 15:59:00,42.8,-8.1,30.34,SE,139,5.0,0.0,11,0.00,,,0.00,528,WeatherHawk,2013-04-03 20:59:00,
2013-04-03 16:05:00,44.3,-10.9,30.34,SSW,202,3.0,0.0,9,0.00,,,0.00,522,WeatherHawk,2013-04-03 21:05:00,
2013-04-03 16:10:00,42.4,-4.9,30.33,SW,218,6.0,0.0,13,0.00,,,0.00,504,WeatherHawk,2013-04-03 21:10:00,
2013-04-03 16:15:00,43.2,-7.7,30.33,South,179,4.0,0.0,11,0.00,,,0.00,435,WeatherHawk,2013-04-03 21:15:00,
2013-04-03 16:20:00,42.8,-12.0,30.33,SSE,165,2.0,0.0,9,0.00,,,0.00,460,WeatherHawk,2013-04-03 21:20:00,
2013-04-03 16:25:00,43.1,-14.1,30.33,SW,235,3.0,0.0,8,0.00,,,0.00,445,WeatherHawk,2013-04-03 21:25:00,
2013-04-03 16:31:00,43.1,-4.3,30.32,SSW,204,0.0,0.0,13,0.00,,,0.00,411,WeatherHawk,2013-04-03 21:31:00,
2013-04-03 16:36:00,42.1,-14.9,30.32,SSE,155,6.0,0.0,8,0.00,,,0.00,367,WeatherHawk,2013-04-03 21:36:00,
2013-04-03 16:42:00,42.9,-4.5,30.32,South,180,1.0,0.0,13,0.00,,,0.00,339,WeatherHawk,2013-04-03 21:42:00,
2013-04-03 16:47:00,41.4,-7.3,30.33,SSE,153,5.0,0.0,12,0.00,,,0.00,342,WeatherHawk,2013-04-03 21:47:00,
2013-04-03 16:53:00,42.7,-6.3,30.33,South,174,5.0,0.0,12,0.00,,,0.00,344,WeatherHawk,2013-04-03 21:53:00,
2013-04-03 16:58:00,43.8,0.6,30.32,South,181,5.0,0.0,16,0.00,,,0.00,330,WeatherHawk,2013-04-03 21:58:00,
2013-04-03 17:03:00,43.4,-2.6,30.32,SSW,202,2.0,0.0,14,0.00,,,0.00,320,WeatherHawk,2013-04-03 22:03:00,
2013-04-03 17:09:00,41.6,-2.5,30.33,South,174,5.0,0.0,15,0.00,,,0.00,300,WeatherHawk,2013-04-03 22:09:00,
2013-04-03 17:15:00,42.4,-6.6,30.31,SSE,158,5.0,0.0,12,0.00,,,0.00,294,WeatherHawk,2013-04-03 22:15:00,
2013-04-03 17:20:00,42.4,-1.9,30.33,South,186,5.0,0.0,15,0.00,,,0.00,269,WeatherHawk,2013-04-03 22:20:00,
2013-04-03 17:25:00,41.8,-1.0,30.32,SE,140,5.0,0.0,16,0.00,,,0.00,259,WeatherHawk,2013-04-03 22:25:00,
2013-04-03 17:30:00,42.9,-1.5,30.31,SW,226,5.0,-999.0,15,0.00,,,0.00,255,WeatherHawk,2013-04-03 22:30:00,
2013-04-03 17:35:00,41.7,-5.5,30.32,South,170,6.0,0.0,13,0.00,,,0.00,245,WeatherHawk,2013-04-03 22:35:00,
2013-04-03 17:40:00,41.8,-8.8,30.31,SSE,163,5.0,0.0,11,0.00,,,0.00,226,WeatherHawk,2013-04-03 22:40:00,
2013-04-03 17:45:00,41.9,-2.3,30.31,SE,146,7.0,0.0,15,0.00,,,0.00,191,WeatherHawk,2013-04-03 22:45:00,
2013-04-03 17:50:00,41.6,-4.0,30.31,SW,223,5.0,0.0,14,0.00,,,0.00,165,WeatherHawk,2013-04-03 22:50:00,
2013-04-03 17:55:00,41.3,-4.2,30.31,South,179,6.0,0.0,14,0.00,,,0.00,147,WeatherHawk,2013-04-03 22:55:00,
2013-04-03 18:00:00,41.0,-3.0,30.32,South,174,7.0,-999.0,15,0.00,,,0.00,136,WeatherHawk,2013-04-03 23:00:00,
2013-04-03 18:05:00,40.9,-4.6,30.30,South,183,7.0,-999.0,14,0.00,,,0.00,125,WeatherHawk,2013-04-03 23:05:00,
2013-04-03 18:10:00,40.7,-3.3,30.30,South,179,6.0,0.0,15,0.00,,,0.00,113,WeatherHawk,2013-04-03 23:10:00,
2013-04-03 18:15:00,40.7,-1.9,30.30,South,183,3.0,0.0,16,0.00,,,0.00,104,WeatherHawk,2013-04-03 23:15:00,
2013-04-03 18:22:00,40.7,-4.8,30.30,SSE,158,4.0,0.0,14,0.00,,,0.00,92,WeatherHawk,2013-04-03 23:22:00,
2013-04-03 18:27:00,40.4,3.6,30.30,South,179,6.0,0.0,21,0.00,,,0.00,78,WeatherHawk,2013-04-03 23:27:00,
2013-04-03 18:32:00,40.0,2.2,30.31,SSE,163,5.0,0.0,20,0.00,,,0.00,71,WeatherHawk,2013-04-03 23:32:00,
2013-04-03 18:38:00,39.8,2.1,30.29,South,172,2.0,0.0,20,0.00,,,0.00,58,WeatherHawk,2013-04-03 23:38:00,
2013-04-03 18:44:00,39.6,3.9,30.29,South,174,3.0,0.0,22,0.00,,,0.00,48,WeatherHawk,2013-04-03 23:44:00,
2013-04-03 18:50:00,38.4,4.8,30.30,South,182,3.0,-999.0,24,0.00,,,0.00,40,WeatherHawk,2013-04-03 23:50:00,
2013-04-03 18:55:00,38.6,8.4,30.31,South,179,3.0,0.0,28,0.00,,,0.00,31,WeatherHawk,2013-04-03 23:55:00,
2013-04-03 19:00:00,38.4,8.2,30.29,South,175,2.0,0.0,28,0.00,,,0.00,28,WeatherHawk,2013-04-04 00:00:00,
2013-04-03 19:05:00,38.6,11.3,30.30,South,174,4.0,0.0,32,0.00,,,0.00,22,WeatherHawk,2013-04-04 00:05:00,
2013-04-03 19:10:00,37.8,12.7,30.29,South,174,2.0,0.0,35,0.00,,,0.00,17,WeatherHawk,2013-04-04 00:10:00,
2013-04-03 19:15:00,38.0,11.5,30.29,South,175,2.0,0.0,33,0.00,,,0.00,13,WeatherHawk,2013-04-04 00:15:00,
2013-04-03 19:22:00,37.1,12.0,30.29,SSE,167,2.0,0.0,35,0.00,,,0.00,7,WeatherHawk,2013-04-04 00:22:00,
2013-04-03 19:27:00,37.2,12.1,30.29,SSE,167,2.0,0.0,35,0.00,,,0.00,3,WeatherHawk,2013-04-04 00:27:00,
2013-04-03 19:33:00,36.3,11.9,30.29,South,170,0.0,0.0,36,0.00,,,0.00,3,WeatherHawk,2013-04-04 00:33:00,
2013-04-03 19:38:00,36.0,11.7,30.29,South,170,2.0,0.0,36,0.00,,,0.00,0,WeatherHawk,2013-04-04 00:38:00,
2013-04-03 19:43:00,36.2,11.2,30.28,SSE,168,1.0,0.0,35,0.00,,,0.00,0,WeatherHawk,2013-04-04 00:43:00,
2013-04-03 19:48:00,35.9,11.6,30.29,SSE,168,2.0,0.0,36,0.00,,,0.00,0,WeatherHawk,2013-04-04 00:48:00,
2013-04-03 19:54:00,36.0,11.6,30.29,South,169,0.0,0.0,36,0.00,,,0.00,0,WeatherHawk,2013-04-04 00:54:00,
2013-04-03 19:59:00,35.2,12.1,30.29,South,170,0.0,0.0,38,0.00,,,0.00,0,WeatherHawk,2013-04-04 00:59:00,
2013-04-03 20:04:00,35.4,12.9,30.28,SSE,163,0.0,0.0,39,0.00,,,0.00,1,WeatherHawk,2013-04-04 01:04:00,
2013-04-03 20:10:00,35.5,13.0,30.28,SSE,162,0.0,0.0,39,0.00,,,0.00,0,WeatherHawk,2013-04-04 01:10:00,
2013-04-03 20:15:00,36.5,13.9,30.28,SSE,153,3.0,0.0,39,0.00,,,0.00,0,WeatherHawk,2013-04-04 01:15:00,
2013-04-03 20:20:00,36.1,13.0,30.28,South,170,4.0,-999.0,38,0.00,,,0.00,0,WeatherHawk,2013-04-04 01:20:00,
2013-04-03 20:25:00,35.5,13.6,30.28,SSE,163,2.0,0.0,40,0.00,,,0.00,0,WeatherHawk,2013-04-04 01:25:00,
2013-04-03 20:32:00,34.4,13.1,30.28,SSE,167,0.0,0.0,41,0.00,,,0.00,0,WeatherHawk,2013-04-04 01:32:00,
2013-04-03 20:37:00,34.5,13.3,30.28,SSE,167,0.0,0.0,41,0.00,,,0.00,0,WeatherHawk,2013-04-04 01:37:00,
2013-04-03 20:42:00,34.3,13.1,30.29,SSE,167,1.0,0.0,41,0.00,,,0.00,0,WeatherHawk,2013-04-04 01:42:00,
2013-04-03 20:48:00,34.8,14.1,30.28,SSE,167,0.0,0.0,42,0.00,,,0.00,0,WeatherHawk,2013-04-04 01:48:00,
2013-04-03 20:54:00,34.4,14.3,30.28,SSE,167,0.0,0.0,43,0.00,,,0.00,0,WeatherHawk,2013-04-04 01:54:00,
2013-04-03 20:59:00,33.5,14.5,30.29,SSE,167,0.0,0.0,45,0.00,,,0.00,1,WeatherHawk,2013-04-04 01:59:00,
2013-04-03 21:04:00,34.1,14.5,30.28,SSE,167,0.0,0.0,44,0.00,,,0.00,1,WeatherHawk,2013-04-04 02:04:00,
2013-04-03 21:10:00,34.4,15.3,30.28,SSE,167,0.0,0.0,45,0.00,,,0.00,0,WeatherHawk,2013-04-04 02:10:00,
2013-04-03 21:15:00,32.5,14.6,30.29,SSE,167,0.0,0.0,47,0.00,,,0.00,0,WeatherHawk,2013-04-04 02:15:00,
2013-04-03 21:20:00,33.0,15.9,30.29,SSE,167,0.0,0.0,49,0.00,,,0.00,1,WeatherHawk,2013-04-04 02:20:00,
2013-04-03 21:25:00,33.3,15.7,30.28,SSE,167,0.0,-999.0,48,0.00,,,0.00,0,WeatherHawk,2013-04-04 02:25:00,
2013-04-03 21:30:00,33.2,15.7,30.28,SSE,167,0.0,0.0,48,0.00,,,0.00,0,WeatherHawk,2013-04-04 02:30:00,
2013-04-03 21:35:00,33.0,16.0,30.28,SSE,167,1.0,0.0,49,0.00,,,0.00,0,WeatherHawk,2013-04-04 02:35:00,
2013-04-03 21:40:00,33.4,16.3,30.28,SSE,166,1.0,0.0,49,0.00,,,0.00,1,WeatherHawk,2013-04-04 02:40:00,
2013-04-03 21:45:00,32.2,16.2,30.28,SSE,166,0.0,0.0,51,0.00,,,0.00,0,WeatherHawk,2013-04-04 02:45:00,
2013-04-03 21:52:00,32.5,16.8,30.28,SSE,166,0.0,0.0,52,0.00,,,0.00,1,WeatherHawk,2013-04-04 02:52:00,
2013-04-03 21:57:00,33.2,16.1,30.28,South,179,0.0,0.0,49,0.00,,,0.00,0,WeatherHawk,2013-04-04 02:57:00,
2013-04-03 22:03:00,33.2,16.1,30.27,SSW,198,2.0,0.0,49,0.00,,,0.00,0,WeatherHawk,2013-04-04 03:03:00,
2013-04-03 22:08:00,33.0,15.4,30.27,South,186,0.0,0.0,48,0.00,,,0.00,0,WeatherHawk,2013-04-04 03:08:00,
2013-04-03 22:14:00,33.9,15.4,30.26,South,190,3.0,0.0,46,0.00,,,0.00,0,WeatherHawk,2013-04-04 03:14:00,
2013-04-03 22:20:00,34.5,14.9,30.27,South,189,3.0,-999.0,44,0.00,,,0.00,0,WeatherHawk,2013-04-04 03:20:00,
2013-04-03 22:25:00,33.7,13.6,30.27,SSW,207,1.0,0.0,43,0.00,,,0.00,0,WeatherHawk,2013-04-04 03:25:00,
2013-04-03 22:30:00,33.9,14.8,30.27,SSW,195,2.0,0.0,45,0.00,,,0.00,0,WeatherHawk,2013-04-04 03:30:00,
2013-04-03 22:35:00,34.0,14.4,30.26,SSW,207,3.0,0.0,44,0.00,,,0.00,1,WeatherHawk,2013-04-04 03:35:00,
2013-04-03 22:40:00,33.5,13.5,30.27,SSW,205,3.0,-999.0,43,0.00,,,0.00,0,WeatherHawk,2013-04-04 03:40:00,
2013-04-03 22:45:00,34.5,13.8,30.26,South,179,4.0,0.0,42,0.00,,,0.00,0,WeatherHawk,2013-04-04 03:45:00,
2013-04-03 22:50:00,33.5,13.4,30.26,SW,218,0.0,0.0,43,0.00,,,0.00,0,WeatherHawk,2013-04-04 03:50:00,
2013-04-03 22:56:00,34.1,14.0,30.26,SSW,199,4.0,0.0,43,0.00,,,0.00,0,WeatherHawk,2013-04-04 03:56:00,
2013-04-03 23:00:00,36.0,15.7,30.26,South,183,5.0,0.0,43,0.00,,,0.00,1,WeatherHawk,2013-04-04 04:00:00,
2013-04-03 23:01:00,35.1,14.3,30.26,SSW,196,4.0,0.0,42,0.00,,,0.00,0,WeatherHawk,2013-04-04 04:01:00,
2013-04-03 23:03:00,34.2,13.5,30.26,South,189,3.0,0.0,42,0.00,,,0.00,0,WeatherHawk,2013-04-04 04:03:00,
2013-04-03 23:08:00,34.9,14.7,30.26,SSW,198,5.0,0.0,43,0.00,,,0.00,0,WeatherHawk,2013-04-04 04:08:00,
2013-04-03 23:13:00,33.0,14.0,30.26,SSE,158,4.0,0.0,45,0.00,,,0.00,1,WeatherHawk,2013-04-04 04:13:00,
2013-04-03 23:19:00,33.4,14.9,30.26,SSE,162,4.0,0.0,46,0.00,,,0.00,0,WeatherHawk,2013-04-04 04:19:00,
2013-04-03 23:24:00,33.1,15.1,30.25,SE,142,4.0,0.0,47,0.00,,,0.00,0,WeatherHawk,2013-04-04 04:24:00,
2013-04-03 23:29:00,32.1,15.1,30.26,SSE,163,4.0,0.0,49,0.00,,,0.00,1,WeatherHawk,2013-04-04 04:29:00,
2013-04-03 23:35:00,33.0,16.0,30.25,SSE,159,6.0,0.0,49,0.00,,,0.00,0,WeatherHawk,2013-04-04 04:35:00,
2013-04-03 23:40:00,33.1,17.0,30.25,South,174,6.0,-999.0,51,0.00,,,0.00,0,WeatherHawk,2013-04-04 04:40:00,
2013-04-03 23:45:00,32.8,16.7,30.24,SSE,158,5.0,0.0,51,0.00,,,0.00,0,WeatherHawk,2013-04-04 04:45:00,
2013-04-03 23:50:00,32.6,16.5,30.24,SSE,162,6.0,0.0,51,0.00,,,0.00,0,WeatherHawk,2013-04-04 04:50:00,
2013-04-03 23:55:00,31.9,16.3,30.24,SSE,163,7.0,0.0,52,0.00,,,0.00,0,WeatherHawk,2013-04-04 04:55:00,